Location: Katowice
(50.2611°N, 19.0242°E)
Time: 02:48:58
(UTC+02:00)

ISS - Pass Details

Date: 01 April 2019
Orbit: 408 x 410 km, 51.6° (Epoch: 24 April)

Event Time Altitude Azimuth Distance (km) Brightness Sun altitude
Rises 20:10:25 0° 281° (W) 2,339 2.2 -9.4°
Reaches altitude 10° 20:12:31 10° 283° (WNW) 1,476 0.6 -9.7°
Maximum altitude 20:15:50 75° 10° (N) 428 -3.7 -10.2°
Enters shadow 20:18:23 16° 94° (E) 1,176 -2.1 -10.6°
